Location: Unspecified
(40.7380°N, 0.0000°E)
Time: 04:04:50
(UTC+00:00)

SO-50 - Visible Passes

Search period start: 04 April 2026 00:00
Search period end: 14 April 2026 00:00
Orbit: 568 x 673 km, 64.6° (Epoch: 29 March)

Date Brightness Start Highest point End Pass type
(mag) Time Alt. Az. Time Alt. Az. Time Alt. Az.
4 Apr ? 19:20:26 10° N 19:22:42 13° NE 19:24:56 10° ENE visible
4 Apr ? 20:58:43 10° NNW 21:02:33 54° N 21:02:33 54° N visible
5 Apr ? 19:37:07 10° N 19:40:49 22° NE 19:42:50 17° ENE visible
5 Apr ? 21:16:27 10° NW 21:20:00 43° WNW 21:20:00 43° WNW visible
6 Apr ? 19:54:17 10° NNW 19:58:46 38° NE 20:00:20 29° E visible
6 Apr ? 21:34:36 10° WNW 21:37:30 24° W 21:37:30 24° W visible
7 Apr ? 20:11:43 10° NNW 20:16:31 75° ENE 20:17:54 46° SE visible
7 Apr ? 21:53:53 10° W 21:55:04 12° W 21:55:04 12° W visible
8 Apr ? 20:29:27 10° NW 20:34:06 53° WSW 20:35:31 38° S visible
9 Apr ? 19:07:15 10° NNW 19:11:45 39° NE 19:16:02 11° ESE visible
9 Apr ? 20:47:37 10° WNW 20:51:30 25° WSW 20:53:14 20° SW visible
10 Apr ? 19:24:41 10° NNW 19:29:30 77° ENE 19:33:50 12° SE visible
10 Apr ? 21:06:59 10° W 21:08:45 12° WSW 21:10:30 10° SW visible
11 Apr ? 19:42:25 10° NW 19:47:03 51° WSW 19:51:33 10° SSE visible
12 Apr ? 20:00:36 10° WNW 20:04:26 25° WSW 20:08:11 10° SSW visible
13 Apr ? 20:20:05 10° W 20:21:40 12° WSW 20:23:14 10° SW visible
